Regional Weather Roundup
Issued by NWS State College, PA

Home | Current Version | Previous Version | Text Only | Print | Product List | Glossary On
Versions: 1 2 3 4 5 6 7 8 9 10 11 12 13 14 15 16 17 18 19 20 21 22 23 24 25 26 27 28 29 30 31 32 33 34 35 36 37 38 39 40 41 42 43 44 45 46 47 48 49 50
000
ASUS41 KCTP 260203
RWRCTP

REGIONAL WEATHER ROUNDUP
NATIONAL WEATHER SERVICE STATE COLLEGE PA
1000 PM EDT SAT MAR 25 2017

Note: "fair" indicates few or no clouds below 12,000 feet with no
significant weather and/or obstructions to visibility.

* = STATION THAT DOES NOT REPORT PRECIPITATION /E.G. RAIN...SNOW...ETC/
    THUNDER OR FOG.

PAZ002>004-007>009-013>016-020>023-029>032-260300-
WESTERN PENNSYLVANIA

CITY           SKY/WX    TMP DP  RH WIND       PRES   REMARKS
ERIE           CLOUDY    37  34  89 NE13      30.22S
MEADVILLE      CLOUDY    51  45  79 NE3       30.17S
FRANKLIN*      CLOUDY    55  48  76 SE9       30.19S
NEW CASTLE     FAIR      62  51  67 E8        30.15F
BEAVER COUNTY  NOT AVBL
BUTLER*        CLOUDY    61  52  72 NE7       30.17S
PITTSBURGH INT CLOUDY    66  52  60 E7        30.13F
PITTSBURGH     MOCLDY    65  49  56 E6        30.14S
INDIANA*       MOCLDY    59  50  72 E7        30.21S
LATROBE        NOT AVBL
WASHINGTON CO* CLOUDY    57  50  77 CALM      30.15F
$$

PAZ004>006-010>012-017>019-024>028-033>037-041-042-045-046-049>053-260300-
CENTRAL PENNSYLVANIA

CITY           SKY/WX    TMP DP  RH WIND       PRES   REMARKS
BRADFORD       PTCLDY    42  39  89 E7        30.24S
DUBOIS         CLOUDY    53  46  77 E12       30.20S
CLEARFIELD       N/A    N/A N/A N/A MISG      30.24S
JOHNSTOWN      CLOUDY    57  49  74 E6        30.20R
ALTOONA        CLOUDY    54  47  77 E7        30.23R
STATE COLLEGE  NOT AVBL
WILLIAMSPORT   CLOUDY    46  38  73 N3        30.30F
SELINSGROVE    CLOUDY    48  41  76 NE10      30.30R
FT INDIANTOWN  CLOUDY    54  44  70 E10G18    30.27R
CAPITAL CITY   MOCLDY    57  42  57 E10       30.26R
HARRISBURG     MOCLDY    56  44  64 E12       30.25R
YORK           MOCLDY    57  46  66 E16G23    30.23R
$$

PAZ038>040-043-044-047-048-054-055-060>062-067>071-260300-
EASTERN PENNSYLVANIA

CITY           SKY/WX    TMP DP  RH WIND       PRES   REMARKS
SCRANTON       CLOUDY    43  41  93 CALM      30.32R
MOUNT POCONO   FOG       37  37 100 E6        30.30R VSB 1/4
ALLENTOWN      CLOUDY    45  37  73 NE15G22   30.33R
QUAKERTOWN*    CLOUDY    48  39  71 E6G16     30.33R
READING        CLOUDY    53  43  68 E10G17    30.29R
LANCASTER      PTCLDY    52  45  77 E8        30.27R
COATESVILLE    CLOUDY    52  45  76 E13       30.28S
POTTSTOWN      PTCLDY    49  40  71 E7G16     30.33R
BLUE BELL      MOCLDY    45  39  81 E9        30.31R
DOYLESTOWN     PTCLDY    46  41  82 VRB3      30.32R
WILLOW GROVE   NOT AVBL
NORTH PHILA    CLOUDY    47  40  76 E14       30.35R
PHILADELPHIA   MOCLDY    47  40  76 E12       30.32R
$$




USA.gov is the U.S. government's official web portal to all federal, state and local government web resources and services.